EDT,Max TemperatureF,Mean TemperatureF,Min TemperatureF,Max Dew PointF,MeanDew PointF,Min DewpointF,Max Humidity, Mean Humidity, Min Humidity, Max Sea Level PressureIn, Mean Sea Level PressureIn, Min Sea Level PressureIn, Max VisibilityMiles, Mean VisibilityMiles, Min VisibilityMiles, Max Wind SpeedMPH, Mean Wind SpeedMPH, Max Gust SpeedMPH,PrecipitationIn, CloudCover, Events, WindDirDegrees
2011-9-1,88,82,77,79,77,74,100,90,65,30.07,30.02,29.99,10,10,4,15,8,,0.08,3,Rain-Thunderstorm,102
2011-9-2,89,84,78,77,74,70,94,75,57,30.01,29.96,29.91,10,10,10,20,10,,0.00,1,,110
2011-9-3,89,82,77,77,72,68,90,75,59,29.95,29.90,29.86,10,10,10,17,12,,0.00,0,,130
2011-9-4,87,82,78,80,78,75,94,87,77,29.91,29.87,29.83,10,10,10,15,10,,0.00,0,,173
2011-9-5,89,84,80,81,79,75,97,85,70,29.86,29.82,29.78,10,9,1,23,13,34,0.19,2,Rain-Thunderstorm,206
2011-9-6,86,80,75,80,77,73,100,88,72,29.91,29.85,29.76,10,8,1,20,14,31,0.32,6,Rain-Thunderstorm,229
2011-9-7,82,76,73,77,75,73,100,93,84,29.95,29.91,29.89,10,6,0,16,8,26,2.23,6,Fog-Rain-Thunderstorm,60
2011-9-8,82,78,73,76,71,67,100,81,68,29.95,29.92,29.89,10,10,10,9,6,20,0.00,3,Rain,25
2011-9-9,87,80,75,77,73,69,100,83,71,29.97,29.93,29.90,10,9,1,18,7,26,0.28,4,Rain-Thunderstorm,52
2011-9-10,84,80,75,78,76,75,100,91,74,30.02,29.97,29.93,10,9,2,14,8,,0.10,3,Rain-Thunderstorm,212
2011-9-11,87,82,78,79,76,73,100,83,65,30.07,30.03,29.99,10,10,10,8,2,,0.00,1,,27
2011-9-12,90,84,79,74,70,61,84,66,38,30.09,30.03,29.96,10,10,10,12,5,,0.00,0,,12
2011-9-13,90,82,75,74,71,67,90,69,48,30.03,29.97,29.91,10,10,10,14,7,,0.00,0,,44
2011-9-14,89,84,79,75,71,68,85,69,51,29.97,29.93,29.89,10,10,9,9,5,,0.00,0,,60
2011-9-15,89,82,78,74,72,69,81,71,55,30.00,29.97,29.93,10,10,8,10,6,,0.11,0,Rain,166
2011-9-16,88,83,78,76,73,67,90,75,49,30.08,30.03,29.99,10,9,7,9,3,,0.00,1,,64
2011-9-17,91,85,79,75,72,68,82,70,48,30.10,30.05,30.00,10,10,10,20,7,,0.00,2,,94
2011-9-18,89,83,78,76,75,73,93,80,62,30.09,30.04,29.99,10,10,8,18,14,,0.01,3,,66
2011-9-19,90,83,77,77,74,68,96,82,52,30.03,29.99,29.91,10,10,8,17,11,,0.00,4,,70
2011-9-20,90,84,79,79,75,72,94,80,57,30.00,29.95,29.90,10,10,10,24,9,32,0.00,3,Thunderstorm,129
2011-9-21,91,85,80,79,77,75,94,82,61,30.03,29.98,29.94,10,10,10,15,9,,0.00,1,,112
2011-9-22,91,82,75,79,76,73,100,88,63,30.02,29.98,29.93,10,8,1,31,10,36,0.95,5,Rain-Thunderstorm,110
2011-9-23,88,82,78,79,77,75,100,87,67,29.99,29.95,29.88,10,10,9,13,7,,0.03,3,Rain-Thunderstorm,139
2011-9-24,86,81,78,79,77,73,100,87,72,29.95,29.91,29.87,10,7,0,15,5,22,1.40,5,Fog-Rain-Thunderstorm,129
2011-9-25,87,80,75,79,76,73,100,88,74,29.96,29.92,29.88,10,9,0,17,7,29,0.73,3,Fog-Rain-Thunderstorm,142
2011-9-26,86,78,73,79,76,73,100,90,74,29.95,29.91,29.88,10,9,1,18,12,26,1.05,4,Rain-Thunderstorm,173
2011-9-27,86,82,77,78,76,73,100,91,70,29.96,29.92,29.88,10,8,1,17,8,21,0.60,6,Rain-Thunderstorm,180
2011-9-28,88,82,77,76,75,71,94,80,59,29.91,29.88,29.84,10,9,2,13,3,17,0.18,2,Rain,354
2011-9-29,88,83,79,77,75,70,94,80,59,29.90,29.85,29.80,10,10,10,10,5,,0.00,1,,57
2011-9-30,86,82,78,74,71,68,84,71,59,29.86,29.82,29.76,10,10,10,13,6,20,0.00,1,,359